Regional Weather Roundup
Issued by NWS

Home | Current Version | Previous Version | Graphics & Text | Print | Product List | Glossary On
Versions: 1 2 3 4 5 6 7 8 9 10 11 12 13 14 15 16 17 18 19 20 21 22 23 24 25 26 27 28 29 30 31 32 33 34 35 36 37 38 39 40 41 42 43 44 45 46 47 48 49 50
000
ASUS43 KFSD 300302
RWRSD

WEATHER ROUNDUP FOR SOUTH DAKOTA
NATIONAL WEATHER SERVICE SIOUX FALLS SD
1000 PM CDT MON SEP 29 2014

NOTE: "FAIR" INDICATES FEW OR NO CLOUDS BELOW 12,000 FEET WITH NO
SIGNIFICANT WEATHER AND/OR OBSTRUCTIONS TO VISIBILITY.


SDZ001>005-009-010-012>017-300400-
NORTHWEST AND NORTH CENTRAL SOUTH DAKOTA

CITY           SKY/WX    TMP DP  RH WIND       PRES   REMARKS
BUFFALO          N/A     52  51  97 SE12      29.83F
FAITH            N/A     54  53  97 NE9       29.89F
MOBRIDGE       CLOUDY    56  50  80 E10       29.91F
$$

SDZ012>016-024>037-041>051-057-063-072>074-300400-
SOUTHWEST AND SOUTH CENTRAL SOUTH DAKOTA

CITY           SKY/WX    TMP DP  RH WIND       PRES   REMARKS
RAPID CTY ARPT FOG       52  52 100 CALM      29.89F VSB 1/2
PIERRE         CLOUDY    63  55  75 E16       29.87F
CUSTER         FOG       51  50  96 CALM      29.92F VSB 3/4
PHILIP         HVY RAIN  60  60 100 E17       29.87F FOG
PINE RIDGE     TSTM      58  57  97 NE13      29.81F FOG
WINNER           N/A     65  60  84 E17       29.86F
$$

SDZ004>011-016>023-039-040-300400-
NORTHEAST SOUTH DAKOTA

CITY           SKY/WX    TMP DP  RH WIND       PRES   REMARKS
ABERDEEN       MOCLDY    55  50  83 E8        29.99F
WATERTOWN      PTCLDY    52  47  83 E12G21    30.02S
SISSETON         N/A     53  48  83 SE8       30.04F
$$

SDZ017-020-022-023-036>040-048>070-300400-
SOUTHEAST SOUTH DAKOTA

CITY           SKY/WX    TMP DP  RH WIND       PRES   REMARKS
SIOUX FALLS    PTCLDY    58  53  84 E15       29.99S
HURON          MOCLDY    58  51  78 E14G23    29.94F
CHAMBERLAIN    PTCLDY    62  57  85 E12G18    29.90S
MITCHELL       CLEAR     62  55  77 E13       29.94F
YANKTON        CLEAR     63  57  82 E10G16    29.96R
$$

ABBREVIATIONS USED IN REMARKS
   TC - TEMPERATURE IN CELSIUS
  WCI - WIND CHILL INDEX
   HX - HEAT INDEX
  VSB - VISIBILITY




USA.gov is the U.S. government's official web portal to all federal, state and local government web resources and services.